Content
SEND FEEDBACK

Daily
Averages
Monthly
Summary
Switzerland

BERN, SWITZERLAND


Home > Europe > Switzerland
Elevation: 1673 feet     Latitude: 46 55N     Longitude: 007 30E

WEATHER
 
SELECT A DAY
Number of Records: 184,608;   Date Range: 7/1/96 - 10/22/14
 
SHARE

PRINT THIS DATA

[ ← Previous Day ]
WEATHER ALMANAC - JUNE 24, 2013
[ Next Day → ]
[ °C ]   °F
We're sorry. There is no daily almanac available for Bern, Switzerland on June 24, 2013.
WEATHER BY HOUR - JUNE 24, 2013
[ °C ]   °F
Local TimeTemperatureDewpointHumidityBarometerVisibilityWind DirectionWind SpeedGust SpeedPrecipitationEventsConditions
12:50 AM48.2 °F46.4 °F93 %30.15 in6.2 miVariable1.2 mphScattered Clouds
1:20 AM50.0 °F46.4 °F87 %30.15 in6.2 miVariable2.3 mphOvercast
1:50 AM51.8 °F48.2 °F88 %30.15 in6.2 miVariable2.3 mphScattered Clouds
2:20 AM51.8 °F48.2 °F88 %30.15 in6.2 miVariable2.3 mphRainLight Rain
2:50 AM51.8 °F48.2 °F88 %30.12 in6.2 miEast (90°)3.5 mphMostly Cloudy
3:20 AM51.8 °F48.2 °F88 %30.12 in6.2 miVariable1.2 mphScattered Clouds
3:50 AM51.8 °F48.2 °F88 %30.12 in6.2 miVariable2.3 mphMostly Cloudy
4:20 AM51.8 °F48.2 °F88 %30.12 in6.2 miESE (120°)3.5 mphMostly Cloudy
4:50 AM51.8 °F48.2 °F88 %30.12 in6.2 miVariable1.2 mphOvercast
5:20 AM53.6 °F46.4 °F77 %30.12 in6.2 miWest (260°)4.6 mphMostly Cloudy
5:50 AM53.6 °F46.4 °F77 %30.12 in6.2 miWest (260°)3.5 mphRainLight Rain
6:20 AM53.6 °F46.4 °F77 %30.12 in6.2 miVariable2.3 mphMostly Cloudy
6:50 AM53.6 °F46.4 °F77 %30.12 in6.2 miVariable1.2 mphMostly Cloudy
7:20 AM53.6 °F48.2 °F82 %30.12 in6.2 miNW (310°)3.5 mphMostly Cloudy
7:50 AM51.8 °F48.2 °F88 %30.12 in5.0 miWNW (290°)9.2 mphRainLight Rain
8:20 AM51.8 °F50.0 °F94 %30.12 in5.0 miNorth (350°)6.9 mphRainLight Rain
8:50 AM51.8 °F50.0 °F94 %30.15 in5.0 miNW (320°)4.6 mphRainLight Rain
9:20 AM51.8 °F48.2 °F88 %30.15 in5.0 miWest (280°)6.9 mphRainLight Rain
9:50 AM53.6 °F50.0 °F88 %30.15 in5.0 miWNW (290°)5.8 mphRainLight Rain
10:20 AM53.6 °F48.2 °F82 %30.18 in5.0 miWest (260°)6.9 mphMostly Cloudy
10:50 AM53.6 °F48.2 °F82 %30.18 in5.0 miWest (280°)6.9 mphRainLight Rain
11:20 AM55.4 °F48.2 °F77 %30.18 in6.2 miWest (280°)8.1 mphMostly Cloudy
11:50 AM55.4 °F48.2 °F77 %30.18 in6.2 miWSW (250°)8.1 mphMostly Cloudy
12:20 PM55.4 °F48.2 °F77 %30.21 in6.2 miWest (270°)10.4 mphMostly Cloudy
12:50 PM57.2 °F46.4 °F67 %30.21 in6.2 miWest (270°)9.2 mphMostly Cloudy
1:20 PM59.0 °F44.6 °F59 %30.21 in6.2 miWSW (250°)9.2 mphMostly Cloudy
1:50 PM59.0 °F46.4 °F63 %30.21 in6.2 miWest (280°)6.9 mphMostly Cloudy
2:20 PM60.8 °F48.2 °F63 %30.21 in6.2 miSW (230°)6.9 mphMostly Cloudy
2:50 PM59.0 °F48.2 °F67 %30.21 in6.2 miWest (260°)8.1 mphMostly Cloudy
3:20 PM59.0 °F46.4 °F63 %30.21 in6.2 miWest (280°)8.1 mphMostly Cloudy
3:50 PM53.6 °F50.0 °F88 %30.21 in6.2 miNW (310°)10.4 mphMostly Cloudy
4:20 PM59.0 °F51.8 °F77 %30.21 in6.2 miWNW (300°)5.8 mphMostly Cloudy
4:50 PM60.8 °F46.4 °F59 %30.21 in6.2 miWest (280°)12.7 mphMostly Cloudy
5:20 PM59.0 °F48.2 °F67 %30.21 in6.2 miWest (280°)9.2 mphMostly Cloudy
5:50 PM60.8 °F48.2 °F63 %30.21 in6.2 miWest (270°)6.9 mphMostly Cloudy
6:20 PM62.6 °F51.8 °F68 %30.21 in6.2 miWest (270°)9.2 mphMostly Cloudy
6:50 PM60.8 °F48.2 °F63 %30.21 in6.2 miWest (260°)8.1 mphMostly Cloudy
7:20 PM53.6 °F48.2 °F82 %30.21 in6.2 miENE (60°)5.8 mphRainLight Rain
7:50 PM53.6 °F50.0 °F88 %30.24 in6.2 miSE (140°)9.2 mphRainHeavy Rain
8:20 PM51.8 °F50.0 °F94 %30.24 in6.2 miVariable2.3 mphRainLight Rain
8:50 PM53.6 °F50.0 °F88 %30.24 in6.2 miESE (120°)4.6 mphMostly Cloudy
9:20 PM51.8 °F51.8 °F100 %30.24 in6.2 miESE (110°)6.9 mphMostly Cloudy
9:50 PM51.8 °F50.0 °F94 %30.27 in6.2 miEast (100°)5.8 mphMostly Cloudy
10:20 PM51.8 °F50.0 °F94 %30.27 in6.2 miEast (100°)4.6 mphMostly Cloudy
10:50 PM51.8 °F50.0 °F94 %30.27 in6.2 miESE (110°)4.6 mphMostly Cloudy
11:20 PM50.0 °F50.0 °F100 %30.27 in6.2 miVariable2.3 mphMostly Cloudy
11:50 PM50.0 °F50.0 °F100 %30.27 in6.2 miESE (110°)4.6 mphMostly Cloudy
Hourly data recorded from LSZB, located miles away from Bern, Switzerland







STORIES FROM OUR PARTNERS